Regional Weather Roundup
Issued by NWS Newport/Morehead, NC

Current Version | Previous Version | Graphics & Text | Print | Product List | Glossary Off
Versions: 1 2 3 4 5 6 7 8 9 10 11 12 13 14 15 16 17 18 19 20 21 22 23 24 25 26 27 28 29 30 31 32 33 34 35 36 37 38 39 40 41 42 43 44 45 46 47 48 49 50

000
ASUS42 KMHX 130513
RWRMHX
WEATHER ROUNDUP FOR EASTERN NORTH CAROLINA
NATIONAL WEATHER SERVICE NEWPORT/MOREHEAD CITY NC
1200 AM EST SAT FEB 13 2016

NOTE: "FAIR" INDICATES FEW OR NO CLOUDS BELOW 12,000 FEET
WITH NO SIGNIFICANT WEATHER AND/OR OBSTRUCTIONS TO VISIBILITY

NCZ015>017-031-032-045>047-102-103-130600-
NORTH COAST

CITY           SKY/WX    TMP DP  RH WIND       PRES   REMARKS
EDENTON        CLOUDY    31  28  90 NW6       30.02F
ELIZABETH CITY PTCLDY    24  23  96 W6        30.02R
KITTY HAWK     PTCLDY    30  29  95 NW6       29.99S
MANTEO         CLOUDY    31  30  94 NW13      30.01S

$$

NCZ045>047-081-094-103-104-130600-
CENTRAL COAST

CITY           SKY/WX    TMP DP  RH WIND       PRES   REMARKS
FRISCO         CLOUDY    35  33  92 NW9       30.00S
SWANQUARTER      N/A     30 N/A N/A NW2       30.00S

$$

NCZ095-097-098-100-101-130600-
SOUTHERN COAST

CITY           SKY/WX    TMP DP  RH WIND       PRES   REMARKS
BEAUFORT       CLOUDY    33  32  96 NW10      30.03F
CEDAR ISLAND     N/A     34 N/A N/A W14       30.06S
JACKSONVILLE   CLOUDY    32  30  92 W5        30.04F FOG
PINEY ISLAND   CLOUDY   N/A N/A N/A W13       30.03S
WILMINGTON     CLEAR     31  28  89 NW3       30.04F


$$

NCZ011>013-027>030-043-044-078>080-089-090>093-098-130600-
COASTAL PLAIN

CITY           SKY/WX    TMP DP  RH WIND       PRES   REMARKS
AHOSKIE        NOT AVBL
CLINTON        CLOUDY    32  32 100 CALM      30.05S FOG
ELIZABETHTOWN  CLEAR     31  30  98 CALM      30.04S FOG
GOLDSBORO      CLOUDY    30  30 100 W5        30.02F
GREENVILLE     MOCLDY    30  28  93 W3        30.05F
HAVELOCK       CLOUDY    32  31  96 NW12      30.05S
KENANSVILLE    CLOUDY    31  31 100 CALM      30.04F FOG
KINSTON        CLOUDY    30  29  96 SW3       30.04F
NEW BERN       CLOUDY    31  29  92 W7        30.05S
RICHLANDS      CLOUDY    30  27  86 CALM      30.04F
ROCKY MOUNT    CLOUDY    30  26  85 CALM      30.04S
WASHINGTON     MOCLDY    28  26  93 W5        30.03S
WHITEVILLE     CLEAR     30  28  93 CALM      30.05R

$$

AMZ130-135-150-152-154-156-158-170-250-252-270-ANZ085-086-088-633-658-670-130600-
MARINE OBSERVATIONS

STATION/POSITION TIME  TEMP    WIND        PRES    WAVE   SWELL
                       AIR SEA DIR/SP/G            HT/PER HT/PER
                 (UTC) (F)     (DEG/KT/KT) (MB)    (FT/S) (FT/S)
CHESAPEAKE LIGHT 0500   30     300/ 16/ 17 1016.5
64 E VA BEACH    0450   37 48  300/ 19/ 23 1014.2    2/ 3   2/ 6
DUCK             0400   29     290/ 14/ 16 1015.3
2 E DUCK         0411      42                N/A     2/ 5
OREGON INLET     0400   32 41  300/ 11/ 13 1015.6
13E OREGON INLT  0500      44                N/A     3/ 4
HATTERAS CG      0400   35 45  300/ 12/ 14 1015.4
DIAMOND BUOY     0450   43 71  300/ 17/ 23 1015.4    5/ 8   5/ 8
CAPE LOOKOUT     NOT AVBL
BEAUFORT LAB     0400   34 43  320/  5/  7 1016.1
30 SE NEW RVR IN 0408   38 63              1016.4
30 SE NEW RVR IN 0425      63                N/A     4/ 7
27 SE WRIGHTSVLE 0408   37 60  360/ 14/ 21 1015.7
5 SE WRIGHTSVLE  0408   37 51  330/ 12/ 16 1016.9
225 S CAPE HAT   0450   64 68  280/ 21/ 29   N/A    14/ 9
41 SE CHARLESTON 0450   54 68  330/  6/  8 1017.1    4/ 6   3/ 6

$$



USA.gov is the U.S. government's official web portal to all federal, state and local government web resources and services.